�������l�o���
Date,Time,MP-1(��Sv/h),MP-2(��Sv/h),MP-3(��Sv/h),MP-4(��Sv/h),MP-5(��Sv/h),MP-6(��Sv/h),MP-7(��Sv/h),MP-8(��Sv/h),����,����(m/s),���J
2018/12/20,00:00,0.772,1.142,0.805,1.472,1.040,0.450,0.794,0.754,���k��,3.7,��
2018/12/20,00:10,0.770,1.143,0.807,1.474,1.038,0.450,0.795,0.754,�k��,4.2,��
2018/12/20,00:20,0.774,1.141,0.807,1.475,1.041,0.449,0.795,0.754,�k��,3.6,��
2018/12/20,00:30,0.773,1.140,0.807,1.474,1.040,0.449,0.795,0.756,�k�k��,3.2,��
2018/12/20,00:40,0.770,1.141,0.807,1.475,1.042,0.451,0.795,0.754,�k��,4.0,��
2018/12/20,00:50,0.770,1.139,0.807,1.475,1.042,0.451,0.794,0.753,���k��,4.3,��
2018/12/20,01:00,0.771,1.140,0.805,1.474,1.040,0.448,0.794,0.753,�k��,5.1,��
2018/12/20,01:10,0.770,1.140,0.808,1.471,1.039,0.449,0.795,0.753,�k��,5.4,��
2018/12/20,01:20,0.772,1.141,0.807,1.475,1.040,0.451,0.795,0.754,���k��,4.6,��
2018/12/20,01:30,0.769,1.141,0.806,1.475,1.038,0.450,0.795,0.752,�k��,3.3,��
2018/12/20,01:40,0.770,1.138,0.806,1.474,1.040,0.449,0.794,0.753,�k�k��,2.6,��
2018/12/20,01:50,0.772,1.140,0.806,1.476,1.040,0.450,0.794,0.753,�k�k��,1.9,��
2018/12/20,02:00,0.770,1.143,0.805,1.474,1.040,0.450,0.794,0.751,�k�k��,2.6,��
2018/12/20,02:10,0.771,1.141,0.805,1.475,1.041,0.449,0.793,0.752,�k�k��,2.6,��
2018/12/20,02:20,0.772,1.144,0.808,1.476,1.042,0.450,0.794,0.754,�k�k��,1.5,��
2018/12/20,02:30,0.772,1.140,0.807,1.475,1.039,0.451,0.794,0.752,�k�k��,2.3,��
2018/12/20,02:40,0.771,1.144,0.806,1.475,1.038,0.448,0.793,0.752,�k�k��,2.5,��
2018/12/20,02:50,0.773,1.140,0.806,1.473,1.040,0.451,0.792,0.754,�k,2.2,��
2018/12/20,03:00,0.771,1.139,0.809,1.476,1.037,0.450,0.794,0.753,�k�k��,2.6,��
2018/12/20,03:10,0.769,1.141,0.808,1.473,1.039,0.451,0.793,0.753,�k�k��,3.9,��
2018/12/20,03:20,0.769,1.142,0.808,1.472,1.040,0.449,0.792,0.754,�k,3.3,��
2018/12/20,03:30,0.770,1.140,0.809,1.472,1.041,0.449,0.793,0.754,�k�k��,4.2,��
2018/12/20,03:40,0.770,1.142,0.809,1.474,1.039,0.449,0.793,0.754,�k,3.3,��
2018/12/20,03:50,0.771,1.141,0.808,1.470,1.040,0.450,0.793,0.752,�k�k��,3.2,��
2018/12/20,04:00,0.770,1.141,0.807,1.473,1.036,0.450,0.792,0.753,�k��,2.9,��
2018/12/20,04:10,0.770,1.144,0.809,1.474,1.038,0.447,0.792,0.753,�k�k��,2.8,��
2018/12/20,04:20,0.771,1.140,0.807,1.475,1.040,0.450,0.792,0.752,�k��,1.7,��
2018/12/20,04:30,0.770,1.139,0.807,1.472,1.038,0.448,0.794,0.753,�쐼,1.2,��
2018/12/20,04:40,0.770,1.141,0.807,1.474,1.039,0.449,0.794,0.755,�쐼,1.1,��
2018/12/20,04:50,0.769,1.140,0.808,1.475,1.038,0.449,0.795,0.754,�k�k��,1.2,��
2018/12/20,05:00,0.770,1.144,0.808,1.473,1.041,0.451,0.794,0.754,�k�k��,2.3,��
2018/12/20,05:10,0.771,1.139,0.806,1.473,1.038,0.449,0.793,0.752,�k�k��,2.6,��
2018/12/20,05:20,0.771,1.139,0.807,1.473,1.039,0.448,0.793,0.752,�k�k��,3.1,��
2018/12/20,05:30,0.770,1.141,0.809,1.473,1.036,0.448,0.794,0.754,�k�k��,3.6,��
2018/12/20,05:40,0.768,1.139,0.807,1.474,1.039,0.449,0.793,0.752,�k,3.5,��
2018/12/20,05:50,0.771,1.141,0.806,1.473,1.038,0.448,0.793,0.752,�k�k��,3.2,��
2018/12/20,06:00,0.770,1.141,0.807,1.473,1.038,0.448,0.792,0.753,�k�k��,3.3,��
2018/12/20,06:10,0.769,1.141,0.807,1.473,1.035,0.450,0.792,0.753,�k�k��,1.5,��
2018/12/20,06:20,0.770,1.139,0.806,1.472,1.036,0.449,0.792,0.755,�k,1.5,��
2018/12/20,06:30,0.770,1.140,0.807,1.472,1.035,0.449,0.793,0.753,�k,1.7,��
2018/12/20,06:40,0.770,1.140,0.808,1.472,1.036,0.449,0.793,0.752,���k��,1.8,��
2018/12/20,06:50,0.769,1.138,0.807,1.472,1.039,0.449,0.793,0.753,�k��,1.5,��
2018/12/20,07:00,0.770,1.139,0.807,1.472,1.038,0.449,0.793,0.754,���쓌,0.9,��
2018/12/20,07:10,0.771,1.138,0.807,1.474,1.038,0.450,0.792,0.751,��쓌,2.9,��
2018/12/20,07:20,0.769,1.135,0.808,1.472,1.038,0.449,0.793,0.754,��,3.8,��
2018/12/20,07:30,0.770,1.139,0.804,1.473,1.037,0.448,0.793,0.753,��쐼,3.6,��
2018/12/20,07:40,0.772,1.140,0.804,1.474,1.037,0.449,0.792,0.754,��,1.5,��
2018/12/20,07:50,0.770,1.141,0.808,1.473,1.037,0.450,0.793,0.753,�k�k��,1.1,��
2018/12/20,08:00,0.771,1.139,0.807,1.472,1.037,0.449,0.794,0.754,�k��,2.3,��
2018/12/20,08:10,0.770,1.141,0.806,1.471,1.036,0.449,0.795,0.752,�k�k��,4.1,��
2018/12/20,08:20,0.769,1.141,0.808,1.471,1.036,0.449,0.794,0.754,�k��,4.4,��
2018/12/20,08:30,0.771,1.140,0.805,1.474,1.037,0.449,0.795,0.755,�k��,4.7,��
2018/12/20,08:40,0.770,1.135,0.806,1.473,1.037,0.449,0.795,0.754,���k��,4.1,��
2018/12/20,08:50,0.770,1.139,0.807,1.473,1.038,0.448,0.794,0.754,�k��,3.7,��
2018/12/20,09:00,0.770,1.138,0.809,1.473,1.038,0.450,0.795,0.754,�k��,2.5,��
2018/12/20,09:10,0.771,1.138,0.810,1.473,1.039,0.450,0.795,0.754,��,1.5,��
2018/12/20,09:20,0.770,1.137,0.810,1.475,1.023,0.449,0.795,0.754,�k��,1.8,��
2018/12/20,09:30,0.771,1.139,0.806,1.473,1.000,0.450,0.794,0.752,�k�k��,1.1,��
2018/12/20,09:40,0.771,1.137,0.808,1.474,0.993,0.449,0.795,0.752,�k,1.5,��
2018/12/20,09:50,0.772,1.134,0.809,1.474,1.003,0.450,0.795,0.754,�k�k��,2.0,��
2018/12/20,10:00,0.772,1.135,0.808,1.472,1.011,0.450,0.795,0.754,�k,2.0,��
2018/12/20,10:10,0.773,1.132,0.809,1.473,1.024,0.449,0.794,0.754,�k,1.7,��
2018/12/20,10:20,0.774,1.132,0.811,1.475,1.022,0.449,0.794,0.753,�k,1.1,��
2018/12/20,10:30,0.774,1.135,0.810,1.473,1.003,0.448,-,0.755,�k��,1.4,��
2018/12/20,10:40,0.772,1.142,0.809,1.474,0.997,0.450,0.789,0.755,�k�k��,0.8,��
2018/12/20,10:50,0.774,1.137,0.806,1.476,0.999,0.449,0.790,0.755,��,0.9,��
2018/12/20,11:00,0.774,1.141,0.808,1.473,1.027,0.450,0.790,0.753,�쓌,2.2,��
2018/12/20,11:10,0.774,1.139,0.807,1.475,1.021,0.449,0.792,0.753,�쓌,2.3,��
2018/12/20,11:20,0.774,1.141,0.810,1.472,1.022,0.450,-,0.755,�쓌,2.3,��
2018/12/20,11:30,0.776,1.143,0.810,1.473,1.035,0.450,-,0.754,�쓌,1.4,��
2018/12/20,11:40,0.775,1.141,0.812,1.475,1.033,0.451,-,0.754,�k��,3.0,��
2018/12/20,11:50,0.777,1.139,0.810,1.476,1.045,0.448,0.789,0.755,�k��,4.7,��
2018/12/20,12:00,0.775,1.140,0.810,1.478,1.045,0.449,0.793,0.754,�k��,4.7,��
2018/12/20,12:10,0.774,1.139,0.810,1.477,1.047,0.450,0.794,0.755,�k��,4.0,��
2018/12/20,12:20,0.774,1.141,0.812,1.473,1.048,0.450,0.793,0.757,�k��,4.1,��
2018/12/20,12:30,0.774,1.140,0.810,1.478,1.049,0.451,0.793,0.756,���k��,4.0,��
2018/12/20,12:40,0.777,1.141,0.814,1.474,1.049,0.449,0.793,0.756,�k��,3.6,��
2018/12/20,12:50,0.775,1.139,0.813,1.477,1.049,0.451,0.797,0.755,���k��,3.0,��
2018/12/20,13:00,0.775,1.141,0.812,1.479,1.048,0.450,0.794,0.754,���k��,2.8,��
2018/12/20,13:10,0.778,1.144,0.811,1.476,1.048,0.445,0.795,0.755,���k��,3.2,��
2018/12/20,13:20,0.776,1.139,0.812,1.475,1.048,0.445,0.795,0.756,���k��,2.6,��
2018/12/20,13:30,0.773,1.143,0.810,1.479,1.048,0.444,0.795,0.755,�k��,2.3,��
2018/12/20,13:40,-,1.142,0.814,1.476,1.047,0.443,0.795,0.754,�k�k��,2.3,��
2018/12/20,13:50,-,1.146,0.812,1.476,1.048,0.449,0.795,0.756,�k�k��,3.4,��
2018/12/20,14:00,0.771,1.146,0.811,1.475,1.049,0.450,0.795,0.755,�k,3.0,��
2018/12/20,14:10,0.773,1.143,0.813,1.476,1.047,0.451,0.794,0.755,�k�k��,2.6,��
2018/12/20,14:20,0.776,1.146,0.813,1.477,1.048,0.452,0.793,0.755,�k��,2.0,��
2018/12/20,14:30,0.776,1.144,0.812,1.474,1.048,0.452,0.794,0.755,�k��,2.0,��
2018/12/20,14:40,0.775,1.145,0.812,1.477,1.048,0.451,0.796,0.755,�k��,5.0,��
2018/12/20,14:50,0.772,1.147,0.813,1.479,1.048,0.451,0.795,0.754,�k��,4.0,��
2018/12/20,15:00,-,1.144,0.812,1.476,1.048,0.452,0.796,0.754,�k�k��,3.4,��
2018/12/20,15:10,-,1.147,0.813,1.479,1.046,0.451,0.794,0.755,�k�k��,3.6,��
2018/12/20,15:20,0.769,1.149,0.812,1.476,1.049,0.450,0.794,0.754,�k�k��,3.4,��
2018/12/20,15:30,0.776,1.150,0.812,1.475,1.049,0.451,0.796,0.756,�k�k��,3.4,��
2018/12/20,15:40,0.775,1.149,0.813,1.478,1.050,0.450,0.796,0.757,�k�k��,3.5,��
2018/12/20,15:50,0.776,1.148,0.809,1.479,1.050,0.449,0.797,0.754,�k�k��,4.3,��
2018/12/20,16:00,0.777,1.148,0.812,1.477,1.047,0.451,0.795,0.755,�k��,4.6,��
2018/12/20,16:10,0.774,1.148,0.812,1.478,1.047,0.452,0.795,0.755,�k��,3.4,��
2018/12/20,16:20,0.776,1.148,0.812,1.477,1.047,0.451,0.795,0.754,���k��,2.6,��
2018/12/20,16:30,0.774,1.147,0.812,1.480,1.047,0.449,0.794,0.754,�k��,3.7,��
2018/12/20,16:40,0.774,1.150,0.810,1.477,1.048,0.449,0.797,0.755,�k��,4.4,��
2018/12/20,16:50,0.774,1.149,0.811,1.477,1.045,0.451,0.794,0.755,���k��,3.5,��
2018/12/20,17:00,0.773,1.150,0.811,1.479,1.049,0.449,0.793,0.753,���k��,3.4,��
2018/12/20,17:10,0.775,1.150,0.810,1.478,1.045,0.449,0.796,0.755,���k��,3.9,��
2018/12/20,17:20,0.772,1.148,0.811,1.476,1.048,0.450,0.793,0.753,���k��,3.1,��
2018/12/20,17:30,0.776,1.148,0.811,1.480,1.045,0.451,0.795,0.753,�k��,3.6,��
2018/12/20,17:40,0.773,1.149,0.812,1.477,1.048,0.450,0.794,0.753,�k��,4.2,��
2018/12/20,17:50,0.773,1.148,0.811,1.478,1.046,0.449,0.796,0.754,�k��,4.3,��
2018/12/20,18:00,0.772,1.148,0.810,1.475,1.047,0.450,0.793,0.753,�k��,4.0,��
2018/12/20,18:10,0.773,1.148,0.811,1.479,1.047,0.450,0.793,0.756,�k��,2.8,��
2018/12/20,18:20,0.774,1.149,0.810,1.478,1.046,0.449,0.793,0.754,�k��,2.3,��
2018/12/20,18:30,0.773,1.147,0.811,1.476,1.044,0.449,0.796,0.755,�k�k��,2.6,��
2018/12/20,18:40,0.773,1.148,0.809,1.478,1.046,0.450,0.795,0.755,�k�k��,3.1,��
2018/12/20,18:50,0.772,1.149,0.813,1.477,1.046,0.449,0.795,0.754,�k�k��,3.6,��
2018/12/20,19:00,0.773,1.149,0.812,1.477,1.045,0.452,0.793,0.755,�k�k��,3.5,��
2018/12/20,19:10,0.773,1.145,0.809,1.478,1.046,0.449,0.793,0.754,�k,4.1,��
2018/12/20,19:20,0.773,1.148,0.812,1.478,1.046,0.449,0.794,0.754,�k,4.3,��
2018/12/20,19:30,0.774,1.146,0.812,1.474,1.048,0.449,0.794,0.753,�k,5.4,��
2018/12/20,19:40,0.773,1.150,0.809,1.475,1.046,0.449,0.793,0.753,�k,6.0,��
2018/12/20,19:50,0.775,1.147,0.808,1.477,1.047,0.450,0.794,0.753,�k,6.2,��
2018/12/20,20:00,0.773,1.148,0.807,1.479,1.047,0.448,0.795,0.754,�k,6.9,��
2018/12/20,20:10,0.772,1.148,0.809,1.476,1.045,0.449,0.794,0.754,�k,7.1,��
2018/12/20,20:20,0.772,1.147,0.810,1.480,1.046,0.448,0.794,0.754,�k,6.9,��
2018/12/20,20:30,0.775,1.148,0.808,1.477,1.047,0.450,0.796,0.756,�k,6.8,��
2018/12/20,20:40,0.773,1.148,0.808,1.475,1.048,0.450,0.794,0.754,�k,6.2,��
2018/12/20,20:50,0.775,1.149,0.811,1.477,1.046,0.449,0.793,0.755,�k,5.7,��
2018/12/20,21:00,0.773,1.148,0.811,1.477,1.048,0.452,0.794,0.753,�k,6.5,��
2018/12/20,21:10,0.773,1.146,0.808,1.477,1.046,0.449,0.793,0.754,�k�k��,7.4,��
2018/12/20,21:20,0.775,1.147,0.809,1.477,1.047,0.449,0.793,0.753,�k�k��,6.4,��
2018/12/20,21:30,0.773,1.151,0.812,1.479,1.046,0.449,0.795,0.754,�k,6.2,��
2018/12/20,21:40,0.776,1.148,0.809,1.477,1.047,0.450,0.795,0.753,�k�k��,6.2,��
2018/12/20,21:50,0.773,1.149,0.810,1.477,1.047,0.451,0.793,0.754,�k�k��,6.8,��
2018/12/20,22:00,0.775,1.148,0.811,1.476,1.046,0.448,0.794,0.754,�k�k��,6.0,��
2018/12/20,22:10,0.774,1.150,0.810,1.475,1.046,0.450,0.795,0.753,�k,5.2,��
2018/12/20,22:20,0.774,1.148,0.810,1.477,1.047,0.449,0.793,0.754,�k�k��,4.4,��
2018/12/20,22:30,0.773,1.149,0.810,1.477,1.046,0.449,0.793,0.753,�k��,3.2,��
2018/12/20,22:40,0.772,1.146,0.809,1.477,1.048,0.451,0.793,0.752,�k�k��,3.0,��
2018/12/20,22:50,0.774,1.148,0.809,1.477,1.046,0.449,0.793,0.754,�k��,3.0,��
2018/12/20,23:00,0.772,1.150,0.809,1.476,1.044,0.450,0.794,0.753,�k�k��,2.5,��
2018/12/20,23:10,0.771,1.148,0.808,1.477,1.047,0.449,0.794,0.754,�k�k��,1.4,��
2018/12/20,23:20,0.773,1.147,0.810,1.476,1.048,0.449,0.794,0.754,�k�k��,2.6,��
2018/12/20,23:30,0.773,1.149,0.810,1.477,1.045,0.450,0.793,0.752,�k�k��,3.4,��
2018/12/20,23:40,0.771,1.147,0.808,1.477,1.046,0.449,0.793,0.752,�k�k��,3.3,��
2018/12/20,23:50,0.773,1.148,0.811,1.479,1.047,0.448,0.793,0.754,�k�k��,3.3,��
